Location: Hradec Kralove
(50.2170°N, 15.8330°E)
Time: 07:51:57
(UTC+01:00)

S-56A Canister/Altair - All Passes

Search period start: 06 February 2023 00:00
Search period end: 16 February 2023 00:00
Orbit: 639 x 2493 km, 38.9° (Epoch: 05 February)

Date Brightness Start Highest point End Pass type
(mag) Time Alt. Az. Time Alt. Az. Time Alt. Az.
06 Feb - 11:13:44 10° SW 11:17:16 21° SSE 11:21:21 10° ESE daylight
06 Feb - 13:15:55 10° WSW 13:20:06 24° S 13:25:26 10° SE daylight
06 Feb - 15:19:46 10° SW 15:23:16 15° SSW 15:27:26 10° S daylight
07 Feb - 10:41:30 10° SSW 10:44:45 19° SSE 10:48:22 10° ESE daylight
07 Feb - 12:43:34 10° WSW 12:47:30 24° S 12:52:23 10° SE daylight
07 Feb - 14:47:13 10° SW 14:50:34 15° SSW 14:54:34 10° SSE daylight
08 Feb - 10:09:14 10° SSW 10:12:15 18° SSE 10:15:27 10° ESE daylight
08 Feb - 12:11:12 10° SW 12:14:56 23° S 12:19:25 10° SE daylight
08 Feb - 14:14:42 10° SW 14:17:55 15° SSW 14:21:43 10° SSE daylight
09 Feb - 09:36:58 10° SSW 09:39:45 16° SSE 09:42:35 10° SE daylight
09 Feb - 11:38:50 10° SW 11:42:24 22° S 11:46:31 10° SE daylight
09 Feb - 13:42:12 10° SW 13:45:18 15° SSW 13:48:53 10° SSE daylight
10 Feb - 09:04:42 10° SSW 09:07:15 15° SSE 09:09:46 10° SE daylight
10 Feb - 11:06:26 10° SW 11:09:52 21° S 11:13:42 10° SE daylight
10 Feb - 13:09:43 10° SW 13:12:42 16° SSW 13:16:07 10° SSE daylight
11 Feb - 08:32:23 10° SSW 08:34:43 14° SSE 08:36:58 10° SE daylight
11 Feb - 10:33:59 10° SW 10:37:21 21° S 10:40:56 10° SE daylight
11 Feb - 12:37:13 10° SW 12:40:07 16° SSW 12:43:23 10° SSE daylight
12 Feb - 08:00:03 10° S 08:02:11 13° SSE 08:04:13 10° SE daylight
12 Feb - 10:01:30 10° SW 10:04:50 20° S 10:08:16 10° SE daylight
12 Feb - 12:04:43 10° SW 12:07:34 16° SSW 12:10:43 10° SSE daylight
13 Feb - 07:27:42 10° S 07:29:38 12° SSE 07:31:28 10° SE daylight
13 Feb - 09:28:57 10° SW 09:32:20 20° S 09:35:39 10° SE daylight
13 Feb - 11:32:09 10° SW 11:35:02 16° SSW 11:38:07 10° SSE daylight
14 Feb - 06:55:18 10° S 06:57:04 12° SSE 06:58:44 10° SE daylight
14 Feb - 08:56:21 10° SW 08:59:49 20° S 09:03:05 10° SE daylight
14 Feb - 10:59:34 10° SW 11:02:30 17° SSW 11:05:34 10° SSE daylight
15 Feb - 06:22:54 10° S 06:24:29 11° SSE 06:25:59 10° SE visible
15 Feb - 08:23:40 10° SW 08:27:18 20° S 08:30:36 10° SE daylight
15 Feb - 10:26:55 10° SW 10:29:58 18° SSW 10:33:04 10° SSE daylight
